Location: Batang Balui
(2.7000°N, 113.7833°E)
Time: 04:35:29
(UTC+00:00)

BLOCK DM-SL R/B - Pass Details

Date: 08 February 2023
Orbit: 367 x 40937 km, 0.5° (Epoch: 26 March)

Event Time Altitude Azimuth Distance (km) Brightness Sun altitude
Exits shadow 21:51:34 11° 267° (W) 5,218 6.6 -12.2°
Maximum altitude 22:01:20 67° 186° (S) 785 3.1 -9.8°
Drops below altitude 10° 22:04:11 10° 101° (E) 1,583 6.4 -9.1°
Sets 22:05:30 0° 97° (E) 2,262 7.7 -8.8°
